Marrakech, Morocco

10:51 AM WEST on July 26, 2017 (GMT +0100)
Marrakech

Weather History for GMMX - September, 2014

Change the Weather History Date:

Saturday, September 6, 2014

  Actual Average Record
Temperature  
Mean Temperature 80 °F -  
Max Temperature 94 °F 87 °F 109 °F (2011)
Min Temperature 66 °F 63 °F 62 °F (2007)
Cooling Degree Days 15    
Growing Degree Days 30 (Base 50)    
Moisture  
Dew Point 60 °F    
Average Humidity 53    
Maximum Humidity 88    
Minimum Humidity 16    
Precipitation  
Precipitation 0.00 in 0.01 in - ()
Sea Level Pressure  
Sea Level Pressure 30.00 in    
Wind  
Wind Speed 5 mph ()    
Max Wind Speed 10 mph    
Max Gust Speed -    
Visibility 6.2 miles    
Events      
Averages and records for this station are not official NWS values.
T = Trace of Precipitation, MM = Missing Value Source: Averaged Metar Reports

Daily Weather History Graph

Daily Weather History Graph

Search for Another Location

Airport or City:

Trip Planner

Search our weather history database for the weather conditions in past years. The results will help you decide how hot, cold, wet, or windy it might be!

Date:

Astronomy

Sep. 06, 2014 Rise Set
Actual Time 7:10 AM WEST 7:49 PM WEST
Civil Twilight 6:46 AM WEST 8:14 PM WEST
Nautical Twilight 6:17 AM WEST 8:43 PM WEST
Astronomical Twilight 5:47 AM WEST 9:12 PM WEST
Moon 5:49 PM WEST (9/6) 4:05 AM WEST (9/6)
Length of Visible Light 13h 28m
Length of Day
12h 39m
Waxing Gibbous, 90% of the Moon is Illuminated
Sep 6
Waxing Gibbous
Sep 9
Full
Sep 16
Last Quarter
Sep 24
New
Oct 1
First Quarter

Hourly Weather History & Observations

Time (WEST) Temp. Heat Index Dew Point Humidity Pressure Visibility Wind Dir Wind Speed Gust Speed Precip Events Conditions
12:00 AM 75.2 °F - 60.8 °F 61% 30.09 in - WSW 6.9 mph - N/A   Clear
12:30 AM 75.2 °F - 60.8 °F 61% 30.06 in - SW 5.8 mph - N/A   Clear
1:00 AM 74 °F - 61 °F 54% 30.01 in 6 mi WSW 6.9 mph - -  
1:00 AM 73.4 °F - 60.8 °F 65% 30.06 in - WSW 5.8 mph - N/A   Clear
2:00 AM 71.6 °F - 60.8 °F 69% 30.06 in - WSW 8.1 mph - N/A   Clear
2:30 AM 71.6 °F - 62.6 °F 73% 30.06 in - WSW 6.9 mph - N/A   Clear
3:00 AM 69.8 °F - 62.6 °F 78% 30.04 in - WSW 5.8 mph - N/A   Clear
3:30 AM 69.8 °F - 62.6 °F 78% 30.04 in 6.2 mi SW 6.9 mph - N/A   Unknown
4:00 AM 69 °F - 62 °F 72% 29.99 in 6 mi WSW 4.6 mph - -  
4:00 AM 68.0 °F - 62.6 °F 83% 30.04 in - WSW 4.6 mph - N/A   Clear
4:30 AM 68.0 °F - 62.6 °F 83% 30.04 in - WSW 4.6 mph - N/A   Clear
5:00 AM 68.0 °F - 62.6 °F 83% 30.04 in - SW 5.8 mph - N/A   Clear
5:30 AM 68.0 °F - 62.6 °F 83% 30.04 in 6.2 mi SW 5.8 mph - N/A   Unknown
6:00 AM 68.0 °F - 62.6 °F 83% 30.04 in - WSW 4.6 mph - N/A   Clear
6:30 AM 66.2 °F - 60.8 °F 83% 30.04 in - West 3.5 mph - N/A   Clear
8:30 AM 68.0 °F - 64.4 °F 88% 30.04 in - Variable 2.3 mph - N/A   Clear
9:00 AM 69.8 °F - 64.4 °F 83% 30.04 in - West 3.5 mph - N/A   Clear
9:30 AM 71.6 °F - 64.4 °F 78% 30.04 in - Variable 2.3 mph - N/A   Clear
10:00 AM 75 °F - 65 °F 63% 29.97 in 6 mi WSW 1.2 mph - -   Scattered Clouds
10:00 AM 75.2 °F - 64.4 °F 69% 30.04 in - Variable 1.2 mph - N/A   Clear
10:30 AM 77.0 °F - 64.4 °F 65% 30.04 in 6.2 mi Variable 3.5 mph - N/A   Partly Cloudy
11:00 AM 78.8 °F - 64.4 °F 61% 30.04 in 6.2 mi Variable 1.2 mph - N/A   Partly Cloudy
11:30 AM 80.6 °F 81.8 °F 62.6 °F 54% 30.04 in 6.2 mi WNW 3.5 mph - N/A   Partly Cloudy
12:00 PM 80.6 °F 81.5 °F 60.8 °F 51% 30.04 in 6.2 mi WNW 4.6 mph - N/A   Partly Cloudy
12:30 PM 84.2 °F 84.4 °F 60.8 °F 45% 30.01 in 6.2 mi Variable 3.5 mph - N/A   Partly Cloudy
1:00 PM 86 °F - 61 °F 32% 29.91 in 6 mi North 3.5 mph - -   Scattered Clouds
1:00 PM 86.0 °F 86.1 °F 60.8 °F 43% 30.01 in 6.2 mi Variable 3.5 mph - N/A   Partly Cloudy
1:30 PM 87.8 °F 87.6 °F 60.8 °F 40% 30.01 in 6.2 mi NW 3.5 mph - N/A   Partly Cloudy
2:00 PM 87.8 °F 87.1 °F 59.0 °F 38% 29.98 in 6.2 mi Variable 3.5 mph - N/A   Partly Cloudy
2:30 PM 89.6 °F 88.9 °F 59.0 °F 36% 29.98 in 6.2 mi Variable 3.5 mph - N/A   Partly Cloudy
3:00 PM 91.4 °F 91.4 °F 60.8 °F 36% 29.98 in 6.2 mi Variable 4.6 mph - N/A   Partly Cloudy
3:30 PM 91.4 °F 89.9 °F 57.2 °F 31% 29.95 in 6.2 mi Variable 4.6 mph - N/A   Partly Cloudy
4:00 PM 93 °F - 52 °F 16% 29.84 in 6 mi North 6.9 mph - -   Scattered Clouds
4:00 PM 91.4 °F 89.1 °F 53.6 °F 28% 29.95 in 6.2 mi North 6.9 mph - N/A   Partly Cloudy
4:30 PM 93.2 °F 91.3 °F 55.4 °F 28% 29.95 in 6.2 mi Variable 6.9 mph - N/A   Partly Cloudy
5:00 PM 95.0 °F 92.7 °F 53.6 °F 25% 29.95 in 6.2 mi NW 8.1 mph - N/A   Scattered Clouds
5:30 PM 93.2 °F 91.3 °F 55.4 °F 28% 29.95 in 6.2 mi West 5.8 mph - N/A   Scattered Clouds
6:00 PM 91.4 °F 89.4 °F 55.4 °F 29% 29.95 in 6.2 mi WSW 9.2 mph - N/A   Scattered Clouds
6:30 PM 91.4 °F 89.1 °F 53.6 °F 28% 29.95 in 6.2 mi West 9.2 mph - N/A   Scattered Clouds
7:00 PM 91 °F - 53 °F 18% 29.83 in 6 mi WSW 9.2 mph - -   Partly Cloudy
7:00 PM 91.4 °F 89.1 °F 53.6 °F 28% 29.95 in 6.2 mi WSW 8.1 mph - N/A   Scattered Clouds
7:30 PM 89.6 °F 87.3 °F 53.6 °F 29% 29.95 in 6.2 mi WSW 8.1 mph - N/A   Scattered Clouds
8:00 PM 89.6 °F 87.3 °F 53.6 °F 29% 29.95 in 6.2 mi WSW 6.9 mph - N/A   Mostly Cloudy
8:30 PM 86.0 °F 86.1 °F 60.8 °F 43% 29.95 in 6.2 mi West 8.1 mph - N/A   Mostly Cloudy
9:00 PM 84.2 °F 85.0 °F 62.6 °F 48% 29.98 in 6.2 mi WSW 6.9 mph - N/A   Mostly Cloudy
9:30 PM 84.2 °F 85.0 °F 62.6 °F 48% 29.98 in 6.2 mi SW 5.8 mph - N/A   Mostly Cloudy
10:00 PM 83 °F - 63 °F 40% 29.91 in 6 mi North 10.4 mph - -   Scattered Clouds
10:00 PM 84.2 °F 85.0 °F 62.6 °F 48% 29.98 in 6.2 mi North 10.4 mph - N/A   Mostly Cloudy
10:30 PM 80.6 °F 81.8 °F 62.6 °F 54% 30.01 in 6.2 mi NW 9.2 mph - N/A   Mostly Cloudy
11:00 PM 78.8 °F - 62.6 °F 57% 30.01 in 6.2 mi West 10.4 mph - N/A   Mostly Cloudy
11:30 PM 77.0 °F - 64.4 °F 65% 30.04 in 6.2 mi West 10.4 mph - N/A   Partly Cloudy